Simultaneous Nadir Overpasses (SNOs) Predictions

Prediction of SNOs between GOES-16 and AQUA Satellite Orbit:

Table of predicted SNOs for the next 14.0 days since TLE Epoch: 4/29/2023
Index Date Time (GOES-16) GOES-16 Lat,Lon AQUA Lat,Lon Distance(km) Time Diff (sec)
1 04/30/2023 18:39:05 0.02, -75.18 0.44, -73.25 219.73 80
2 05/01/2023 07:02:34 -0.01, -75.19 0.64, -78.30 352.79 80
3 05/03/2023 06:45:59 -0.02, -75.20 -0.07, -74.90 34.49 80
4 05/05/2023 06:32:04 -0.02, -75.22 -0.81, -71.51 422.24 80
5 05/05/2023 18:55:41 0.02, -75.22 -0.27, -76.58 154.86 80
6 05/07/2023 18:39:05 0.02, -75.23 0.45, -73.18 233.30 80
7 05/08/2023 07:02:34 -0.01, -75.24 0.60, -78.23 338.87 80
8 05/10/2023 06:45:57 -0.01, -75.26 -0.11, -74.82 49.71 80
9 05/12/2023 06:32:00 -0.01, -75.28 -0.85, -71.42 439.11 80
10 05/12/2023 18:55:36 0.01, -75.28 -0.25, -76.49 137.50 80
